Terminal Aerodrome Forecast
Issued by NWS Duluth, MN

Home | Current Version | Previous Version | Text Only | Print | Product List | Glossary On
Versions: 1 2 3 4 5 6 7 8 9 10 11 12 13 14 15 16 17 18 19 20 21 22 23 24
000
FTUS43 KDLH 012200 AAC
TAFINL
TAF AMD
KINL 012218Z 0122/0218 16008G14KT P6SM SCT090
     FM020100 16007KT P6SM BKN080
     FM021500 18012G22KT P6SM BKN050=

USA.gov is the U.S. government's official web portal to all federal, state and local government web resources and services.